Location: Moy Burn
(57.3833°N, 4.0667°W)
Time: 08:44:10
(UTC+00:00)

SL-16 R/B - Pass Details

Date: 08 August 2020
Orbit: 843 x 845 km, 71.0° (Epoch: 18 September)

Event Time Altitude Azimuth Distance (km) Brightness Sun altitude
Rises 23:15:08 0° 322° (NW) 3,419 6.7 -15.5°
Reaches altitude 10° 23:17:50 10° 312° (NW) 2,479 5.5 -15.6°
Maximum altitude 23:22:44 31° 252° (WSW) 1,453 3.4 -15.8°
Enters shadow 23:26:03 18° 203° (SSW) 1,987 3.7 -15.9°
